Time,TemperatureF,DewpointF,PressureIn,WindDirection,WindDirectionDegrees,WindSpeedMPH,WindSpeedGustMPH,Humidity,HourlyPrecipIn,Conditions,Clouds,dailyrainin,SoftwareType,DateUTC
2013-10-01 00:01:00,59.8,55.3,30.01,SE,137,0.0,3.0,85,0.00,,,0.00,Wunderground v.1.15,2013-10-01 05:01:00,
2013-10-01 00:06:00,59.8,55.3,30.00,SSW,212,2.0,5.0,85,0.00,,,0.00,Wunderground v.1.15,2013-10-01 05:06:00,
2013-10-01 00:11:00,59.7,55.2,30.00,South,169,4.0,4.0,85,0.00,,,0.00,Wunderground v.1.15,2013-10-01 05:11:00,
2013-10-01 00:16:00,59.7,55.2,30.00,SE,127,1.0,4.0,85,0.00,,,0.00,Wunderground v.1.15,2013-10-01 05:16:00,
2013-10-01 00:21:00,59.6,55.1,30.00,SSE,148,0.0,6.0,85,0.00,,,0.00,Wunderground v.1.15,2013-10-01 05:21:00,
2013-10-01 00:26:00,59.7,55.2,30.00,ESE,121,3.0,6.0,85,0.00,,,0.00,Wunderground v.1.15,2013-10-01 05:26:00,
2013-10-01 00:32:00,59.6,55.1,30.00,SE,125,3.0,3.0,85,0.00,,,0.00,Wunderground v.1.15,2013-10-01 05:32:00,
2013-10-01 00:37:00,59.6,55.4,30.00,ESE,111,0.0,3.0,86,0.00,,,0.00,Wunderground v.1.15,2013-10-01 05:37:00,
2013-10-01 00:42:00,59.6,55.1,30.00,ESE,112,0.0,4.0,85,0.00,,,0.00,Wunderground v.1.15,2013-10-01 05:42:00,
2013-10-01 00:47:00,59.6,55.4,30.00,ESE,119,1.0,7.0,86,0.00,,,0.00,Wunderground v.1.15,2013-10-01 05:47:00,
2013-10-01 00:52:00,59.5,55.3,30.00,SSW,192,2.0,5.0,86,0.00,,,0.00,Wunderground v.1.15,2013-10-01 05:52:00,
2013-10-01 00:57:00,59.5,55.3,30.00,SSE,158,0.0,5.0,86,0.00,,,0.00,Wunderground v.1.15,2013-10-01 05:57:00,
2013-10-01 01:02:00,59.5,55.3,30.00,SSW,197,1.0,2.0,86,0.00,,,0.00,Wunderground v.1.15,2013-10-01 06:02:00,
2013-10-01 01:07:00,59.4,55.2,30.00,SSE,167,0.0,7.0,86,0.00,,,0.00,Wunderground v.1.15,2013-10-01 06:07:00,
2013-10-01 01:12:00,59.4,55.2,30.00,SE,141,2.0,4.0,86,0.00,,,0.00,Wunderground v.1.15,2013-10-01 06:12:00,
2013-10-01 01:17:00,59.3,55.1,30.00,ESE,118,3.0,4.0,86,0.00,,,0.00,Wunderground v.1.15,2013-10-01 06:17:00,
2013-10-01 01:22:00,59.3,55.4,30.01,East,96,0.0,3.0,87,0.00,,,0.00,Wunderground v.1.15,2013-10-01 06:22:00,
2013-10-01 01:27:00,59.2,55.3,30.00,ESE,117,3.0,5.0,87,0.00,,,0.00,Wunderground v.1.15,2013-10-01 06:27:00,
2013-10-01 01:32:00,59.2,55.3,30.00,ENE,74,3.0,5.0,87,0.00,,,0.00,Wunderground v.1.15,2013-10-01 06:32:00,
2013-10-01 01:37:00,59.1,55.2,30.00,East,83,0.0,5.0,87,0.00,,,0.00,Wunderground v.1.15,2013-10-01 06:37:00,
2013-10-01 01:42:00,59.1,55.2,30.01,WSW,241,2.0,4.0,87,0.00,,,0.00,Wunderground v.1.15,2013-10-01 06:42:00,
2013-10-01 01:47:00,59.0,55.1,30.01,East,82,0.0,4.0,87,0.00,,,0.00,Wunderground v.1.15,2013-10-01 06:47:00,
2013-10-01 01:52:00,59.0,55.1,30.01,SSE,165,1.0,4.0,87,0.00,,,0.00,Wunderground v.1.15,2013-10-01 06:52:00,
2013-10-01 01:57:00,59.0,55.1,30.01,NE,52,1.0,5.0,87,0.00,,,0.00,Wunderground v.1.15,2013-10-01 06:57:00,
2013-10-01 02:02:00,58.9,55.0,30.01,NW,317,1.0,4.0,87,0.00,,,0.00,Wunderground v.1.15,2013-10-01 07:02:00,
2013-10-01 02:07:00,58.9,55.4,30.01,ENE,63,1.0,4.0,88,0.00,,,0.00,Wunderground v.1.15,2013-10-01 07:07:00,
2013-10-01 02:12:00,58.8,55.3,30.01,SE,138,0.0,3.0,88,0.00,,,0.00,Wunderground v.1.15,2013-10-01 07:12:00,
2013-10-01 02:17:00,58.8,55.3,30.01,ESE,121,0.0,4.0,88,0.00,,,0.00,Wunderground v.1.15,2013-10-01 07:17:00,
2013-10-01 02:22:00,58.9,55.4,30.01,East,100,0.0,2.0,88,0.00,,,0.00,Wunderground v.1.15,2013-10-01 07:22:00,
2013-10-01 02:27:00,58.9,55.0,30.01,SSW,197,0.0,3.0,87,0.00,,,0.00,Wunderground v.1.15,2013-10-01 07:27:00,
2013-10-01 02:32:00,58.9,55.0,30.01,East,96,1.0,3.0,87,0.00,,,0.00,Wunderground v.1.15,2013-10-01 07:32:00,
2013-10-01 02:37:00,58.9,55.0,30.01,NNW,334,0.0,4.0,87,0.00,,,0.00,Wunderground v.1.15,2013-10-01 07:37:00,
2013-10-01 02:42:00,58.9,55.0,30.01,West,259,1.0,5.0,87,0.00,,,0.00,Wunderground v.1.15,2013-10-01 07:42:00,
2013-10-01 02:47:00,59.0,55.1,30.01,ESE,105,0.0,5.0,87,0.00,,,0.00,Wunderground v.1.15,2013-10-01 07:47:00,
2013-10-01 02:52:00,59.1,55.2,30.01,SE,126,2.0,4.0,87,0.00,,,0.00,Wunderground v.1.15,2013-10-01 07:52:00,
2013-10-01 02:57:00,59.3,55.4,30.01,SE,129,0.0,4.0,87,0.00,,,0.00,Wunderground v.1.15,2013-10-01 07:57:00,
2013-10-01 03:03:00,59.5,55.6,30.01,East,101,0.0,4.0,87,0.00,,,0.00,Wunderground v.1.15,2013-10-01 08:03:00,
2013-10-01 03:08:00,59.5,55.3,30.01,SE,140,2.0,4.0,86,0.00,,,0.00,Wunderground v.1.15,2013-10-01 08:08:00,
2013-10-01 03:13:00,59.6,55.4,30.01,NE,53,2.0,4.0,86,0.00,,,0.00,Wunderground v.1.15,2013-10-01 08:13:00,
2013-10-01 03:18:00,59.7,55.5,30.01,ESE,102,0.0,4.0,86,0.00,,,0.00,Wunderground v.1.15,2013-10-01 08:18:00,
2013-10-01 03:23:00,59.8,55.6,30.01,SE,138,1.0,2.0,86,0.00,,,0.00,Wunderground v.1.15,2013-10-01 08:23:00,
2013-10-01 03:28:00,59.8,55.6,30.02,ESE,113,0.0,2.0,86,0.00,,,0.00,Wunderground v.1.15,2013-10-01 08:28:00,
2013-10-01 03:33:00,59.9,55.7,30.02,ESE,122,0.0,4.0,86,0.00,,,0.00,Wunderground v.1.15,2013-10-01 08:33:00,
2013-10-01 03:38:00,59.9,55.7,30.02,SE,130,0.0,4.0,86,0.00,,,0.00,Wunderground v.1.15,2013-10-01 08:38:00,
2013-10-01 03:43:00,59.8,55.6,30.02,SE,146,1.0,2.0,86,0.00,,,0.00,Wunderground v.1.15,2013-10-01 08:43:00,
2013-10-01 03:48:00,59.8,55.6,30.03,ENE,76,0.0,3.0,86,0.00,,,0.00,Wunderground v.1.15,2013-10-01 08:48:00,
2013-10-01 03:53:00,59.8,55.6,30.03,West,268,0.0,1.0,86,0.00,,,0.00,Wunderground v.1.15,2013-10-01 08:53:00,
2013-10-01 03:58:00,59.8,55.9,30.03,South,190,0.0,3.0,87,0.00,,,0.00,Wunderground v.1.15,2013-10-01 08:58:00,
2013-10-01 04:03:00,59.7,55.8,30.03,SE,141,0.0,1.0,87,0.00,,,0.00,Wunderground v.1.15,2013-10-01 09:03:00,
2013-10-01 04:08:00,59.7,55.8,30.03,West,262,0.0,3.0,87,0.00,,,0.00,Wunderground v.1.15,2013-10-01 09:08:00,
2013-10-01 04:13:00,59.6,55.7,30.03,SE,132,1.0,2.0,87,0.00,,,0.00,Wunderground v.1.15,2013-10-01 09:13:00,
2013-10-01 04:18:00,59.6,55.7,30.03,SE,126,0.0,3.0,87,0.00,,,0.00,Wunderground v.1.15,2013-10-01 09:18:00,
2013-10-01 04:23:00,59.5,55.6,30.03,North,355,0.0,2.0,87,0.00,,,0.00,Wunderground v.1.15,2013-10-01 09:23:00,
2013-10-01 04:28:00,59.5,55.9,30.04,SE,126,0.0,3.0,88,0.00,,,0.00,Wunderground v.1.15,2013-10-01 09:28:00,
2013-10-01 04:33:00,59.5,55.9,30.04,SSE,147,0.0,3.0,88,0.00,,,0.00,Wunderground v.1.15,2013-10-01 09:33:00,
2013-10-01 04:38:00,59.5,55.9,30.04,North,355,0.0,4.0,88,0.00,,,0.00,Wunderground v.1.15,2013-10-01 09:38:00,
2013-10-01 04:43:00,59.5,55.9,30.04,SE,136,1.0,5.0,88,0.00,,,0.00,Wunderground v.1.15,2013-10-01 09:43:00,
2013-10-01 04:48:00,59.5,55.9,30.04,SSE,167,0.0,5.0,88,0.00,,,0.00,Wunderground v.1.15,2013-10-01 09:48:00,
2013-10-01 04:53:00,59.4,55.8,30.04,SSE,165,0.0,3.0,88,0.00,,,0.00,Wunderground v.1.15,2013-10-01 09:53:00,
2013-10-01 04:58:00,59.3,55.7,30.04,WNW,297,0.0,4.0,88,0.00,,,0.00,Wunderground v.1.15,2013-10-01 09:58:00,
2013-10-01 05:03:00,59.2,56.0,30.04,SE,132,0.0,2.0,89,0.00,,,0.00,Wunderground v.1.15,2013-10-01 10:03:00,
2013-10-01 05:08:00,59.1,55.9,30.04,ESE,107,1.0,6.0,89,0.00,,,0.00,Wunderground v.1.15,2013-10-01 10:08:00,
2013-10-01 05:13:00,59.0,55.8,30.04,East,101,1.0,3.0,89,0.00,,,0.00,Wunderground v.1.15,2013-10-01 10:13:00,
2013-10-01 05:18:00,58.9,56.0,30.05,WSW,242,0.0,3.0,90,0.00,,,0.00,Wunderground v.1.15,2013-10-01 10:18:00,
2013-10-01 05:23:00,58.9,55.7,30.05,SE,131,1.0,3.0,89,0.00,,,0.00,Wunderground v.1.15,2013-10-01 10:23:00,
2013-10-01 05:28:00,58.9,56.0,30.05,SW,227,0.0,3.0,90,0.00,,,0.00,Wunderground v.1.15,2013-10-01 10:28:00,
2013-10-01 05:33:00,58.9,56.0,30.05,SE,137,2.0,3.0,90,0.00,,,0.00,Wunderground v.1.15,2013-10-01 10:33:00,
2013-10-01 05:38:00,58.9,56.0,30.06,ESE,117,2.0,3.0,90,0.00,,,0.00,Wunderground v.1.15,2013-10-01 10:38:00,
2013-10-01 05:43:00,58.9,56.0,30.06,SE,134,1.0,3.0,90,0.00,,,0.00,Wunderground v.1.15,2013-10-01 10:43:00,
2013-10-01 05:48:00,58.9,56.0,30.06,SE,124,0.0,3.0,90,0.00,,,0.00,Wunderground v.1.15,2013-10-01 10:48:00,
2013-10-01 05:53:00,58.9,56.0,30.06,SSW,194,1.0,3.0,90,0.00,,,0.00,Wunderground v.1.15,2013-10-01 10:53:00,
2013-10-01 05:58:00,59.0,56.1,30.06,SW,229,1.0,4.0,90,0.00,,,0.00,Wunderground v.1.15,2013-10-01 10:58:00,
2013-10-01 06:04:00,59.0,56.1,30.06,SSW,196,1.0,4.0,90,0.00,,,0.00,Wunderground v.1.15,2013-10-01 11:04:00,
2013-10-01 06:09:00,59.0,55.8,30.06,ESE,109,1.0,6.0,89,0.00,,,0.00,Wunderground v.1.15,2013-10-01 11:09:00,
2013-10-01 06:14:00,59.0,56.1,30.07,ENE,69,1.0,4.0,90,0.00,,,0.00,Wunderground v.1.15,2013-10-01 11:14:00,
2013-10-01 06:19:00,59.0,56.1,30.07,SSE,159,4.0,5.0,90,0.00,,,0.00,Wunderground v.1.15,2013-10-01 11:19:00,
2013-10-01 06:24:00,58.9,56.0,30.07,SE,131,5.0,6.0,90,0.00,,,0.00,Wunderground v.1.15,2013-10-01 11:24:00,
2013-10-01 06:29:00,58.9,56.0,30.07,ESE,117,4.0,7.0,90,0.00,,,0.00,Wunderground v.1.15,2013-10-01 11:29:00,
2013-10-01 06:34:00,58.9,56.0,30.07,SE,128,5.0,6.0,90,0.00,,,0.00,Wunderground v.1.15,2013-10-01 11:34:00,
2013-10-01 06:39:00,58.9,56.0,30.07,SE,136,1.0,7.0,90,0.00,,,0.00,Wunderground v.1.15,2013-10-01 11:39:00,
2013-10-01 06:44:00,58.8,55.9,30.08,SE,126,5.0,7.0,90,0.00,,,0.00,Wunderground v.1.15,2013-10-01 11:44:00,
2013-10-01 06:49:00,58.8,55.9,30.08,SE,136,5.0,7.0,90,0.00,,,0.00,Wunderground v.1.15,2013-10-01 11:49:00,
2013-10-01 06:54:00,58.8,55.9,30.08,SSE,167,3.0,6.0,90,0.00,,,0.00,Wunderground v.1.15,2013-10-01 11:54:00,
2013-10-01 06:59:00,58.8,55.9,30.08,ESE,114,5.0,7.0,90,0.00,,,0.00,Wunderground v.1.15,2013-10-01 11:59:00,
2013-10-01 07:04:00,58.9,56.3,30.08,SE,138,1.0,7.0,91,0.00,,,0.00,Wunderground v.1.15,2013-10-01 12:04:00,
2013-10-01 07:09:00,58.9,56.3,30.08,SE,132,6.0,7.0,91,0.00,,,0.00,Wunderground v.1.15,2013-10-01 12:09:00,
2013-10-01 07:14:00,58.9,56.3,30.08,SE,145,4.0,5.0,91,0.00,,,0.00,Wunderground v.1.15,2013-10-01 12:14:00,
2013-10-01 07:19:00,59.0,56.4,30.08,SE,130,3.0,6.0,91,0.00,,,0.00,Wunderground v.1.15,2013-10-01 12:19:00,
2013-10-01 07:24:00,59.1,56.5,30.08,SSE,165,5.0,8.0,91,0.00,,,0.00,Wunderground v.1.15,2013-10-01 12:24:00,
2013-10-01 07:29:00,59.2,56.6,30.08,SE,128,5.0,8.0,91,0.00,,,0.00,Wunderground v.1.15,2013-10-01 12:29:00,
2013-10-01 07:34:00,59.4,56.8,30.08,ESE,122,3.0,5.0,91,0.00,,,0.00,Wunderground v.1.15,2013-10-01 12:34:00,
2013-10-01 07:39:00,59.5,57.2,30.08,ESE,111,4.0,6.0,92,0.00,,,0.00,Wunderground v.1.15,2013-10-01 12:39:00,
2013-10-01 07:44:00,59.7,57.4,30.08,SE,140,2.0,8.0,92,0.00,,,0.00,Wunderground v.1.15,2013-10-01 12:44:00,
2013-10-01 07:49:00,59.8,57.5,30.09,SE,139,2.0,8.0,92,0.00,,,0.00,Wunderground v.1.15,2013-10-01 12:49:00,
2013-10-01 07:54:00,59.8,57.5,30.09,East,88,3.0,5.0,92,0.00,,,0.00,Wunderground v.1.15,2013-10-01 12:54:00,
2013-10-01 07:59:00,59.9,57.6,30.09,SE,136,2.0,5.0,92,0.00,,,0.00,Wunderground v.1.15,2013-10-01 12:59:00,
2013-10-01 08:04:00,60.0,57.7,30.09,SE,130,1.0,5.0,92,0.00,,,0.00,Wunderground v.1.15,2013-10-01 13:04:00,
2013-10-01 08:10:00,60.1,58.1,30.09,South,184,5.0,5.0,93,0.00,,,0.00,Wunderground v.1.15,2013-10-01 13:10:00,
2013-10-01 08:15:00,60.4,58.4,30.09,SSW,192,1.0,4.0,93,0.00,,,0.00,Wunderground v.1.15,2013-10-01 13:15:00,
2013-10-01 08:20:00,60.8,59.1,30.09,WSW,253,2.0,2.0,94,0.00,,,0.00,Wunderground v.1.15,2013-10-01 13:20:00,
2013-10-01 08:25:00,61.4,59.7,30.09,ESE,116,0.0,6.0,94,0.00,,,0.00,Wunderground v.1.15,2013-10-01 13:25:00,
2013-10-01 08:30:00,62.0,60.3,30.10,WSW,249,2.0,3.0,94,0.00,,,0.00,Wunderground v.1.15,2013-10-01 13:30:00,
2013-10-01 08:35:00,62.4,60.3,30.10,South,190,0.0,4.0,93,0.00,,,0.00,Wunderground v.1.15,2013-10-01 13:35:00,
2013-10-01 08:40:00,62.9,60.8,30.10,ESE,123,2.0,4.0,93,0.00,,,0.00,Wunderground v.1.15,2013-10-01 13:40:00,
2013-10-01 08:45:00,63.0,60.6,30.10,WNW,292,1.0,4.0,92,0.00,,,0.00,Wunderground v.1.15,2013-10-01 13:45:00,
2013-10-01 08:50:00,63.1,60.7,30.10,South,189,4.0,4.0,92,0.00,,,0.00,Wunderground v.1.15,2013-10-01 13:50:00,
2013-10-01 08:55:00,63.2,60.8,30.10,East,97,0.0,6.0,92,0.00,,,0.00,Wunderground v.1.15,2013-10-01 13:55:00,
2013-10-01 09:00:00,63.5,61.1,30.10,SSE,156,0.0,2.0,92,0.00,,,0.00,Wunderground v.1.15,2013-10-01 14:00:00,
2013-10-01 09:05:00,63.7,61.3,30.10,SSW,201,1.0,2.0,92,0.00,,,0.00,Wunderground v.1.15,2013-10-01 14:05:00,
2013-10-01 09:10:00,63.9,61.2,30.10,WSW,250,2.0,6.0,91,0.00,,,0.00,Wunderground v.1.15,2013-10-01 14:10:00,
2013-10-01 09:15:00,63.7,61.3,30.10,SW,217,1.0,7.0,92,0.00,,,0.00,Wunderground v.1.15,2013-10-01 14:15:00,
2013-10-01 09:20:00,63.7,61.3,30.10,WSW,246,6.0,6.0,92,0.00,,,0.00,Wunderground v.1.15,2013-10-01 14:20:00,
2013-10-01 09:25:00,63.8,61.4,30.10,SW,219,1.0,8.0,92,0.00,,,0.00,Wunderground v.1.15,2013-10-01 14:25:00,
2013-10-01 09:30:00,63.9,61.2,30.10,SW,217,5.0,5.0,91,0.00,,,0.00,Wunderground v.1.15,2013-10-01 14:30:00,
2013-10-01 09:35:00,64.0,61.6,30.10,SW,229,2.0,7.0,92,0.00,,,0.00,Wunderground v.1.15,2013-10-01 14:35:00,
2013-10-01 09:40:00,64.0,61.6,30.10,SSW,201,5.0,5.0,92,0.00,,,0.00,Wunderground v.1.15,2013-10-01 14:40:00,
2013-10-01 09:45:00,64.2,61.5,30.10,SW,223,3.0,10.0,91,0.00,,,0.00,Wunderground v.1.15,2013-10-01 14:45:00,
2013-10-01 09:50:00,64.3,61.9,30.10,WSW,237,7.0,7.0,92,0.00,,,0.00,Wunderground v.1.15,2013-10-01 14:50:00,
2013-10-01 09:55:00,64.4,61.7,30.10,WSW,252,6.0,7.0,91,0.00,,,0.00,Wunderground v.1.15,2013-10-01 14:55:00,
2013-10-01 10:00:00,64.4,61.7,30.10,SW,235,5.0,6.0,91,0.00,,,0.00,Wunderground v.1.15,2013-10-01 15:00:00,
2013-10-01 10:05:00,64.2,61.5,30.10,WSW,246,4.0,7.0,91,0.00,,,0.00,Wunderground v.1.15,2013-10-01 15:05:00,
2013-10-01 10:10:00,64.0,61.3,30.10,SW,221,2.0,6.0,91,0.00,,,0.00,Wunderground v.1.15,2013-10-01 15:10:00,
2013-10-01 10:15:00,63.9,61.5,30.10,WSW,238,0.0,6.0,92,0.00,,,0.00,Wunderground v.1.15,2013-10-01 15:15:00,
2013-10-01 10:21:00,63.9,61.5,30.10,WSW,250,3.0,5.0,92,0.00,,,0.00,Wunderground v.1.15,2013-10-01 15:21:00,
2013-10-01 10:26:00,64.1,61.7,30.10,WSW,238,9.0,9.0,92,0.00,,,0.00,Wunderground v.1.15,2013-10-01 15:26:00,
2013-10-01 10:31:00,64.5,62.1,30.10,SW,236,1.0,4.0,92,0.00,,,0.00,Wunderground v.1.15,2013-10-01 15:31:00,
2013-10-01 10:36:00,65.0,62.3,30.10,SW,234,2.0,9.0,91,0.00,,,0.00,Wunderground v.1.15,2013-10-01 15:36:00,
2013-10-01 10:41:00,65.3,62.3,30.10,West,268,0.0,5.0,90,0.00,,,0.00,Wunderground v.1.15,2013-10-01 15:41:00,
2013-10-01 10:46:00,65.4,62.4,30.10,WSW,244,8.0,9.0,90,0.00,,,0.00,Wunderground v.1.15,2013-10-01 15:46:00,
2013-10-01 10:51:00,65.3,62.3,30.10,SW,224,4.0,7.0,90,0.00,,,0.00,Wunderground v.1.15,2013-10-01 15:51:00,
2013-10-01 10:56:00,65.1,62.1,30.10,SSW,207,1.0,7.0,90,0.00,,,0.00,Wunderground v.1.15,2013-10-01 15:56:00,
2013-10-01 11:01:00,65.3,62.3,30.10,WSW,255,0.0,5.0,90,0.00,,,0.00,Wunderground v.1.15,2013-10-01 16:01:00,
2013-10-01 11:06:00,65.9,62.6,30.10,SSW,202,5.0,7.0,89,0.00,,,0.00,Wunderground v.1.15,2013-10-01 16:06:00,
2013-10-01 11:11:00,66.6,62.9,30.10,WSW,240,2.0,5.0,88,0.00,,,0.00,Wunderground v.1.15,2013-10-01 16:11:00,
2013-10-01 11:16:00,67.2,63.2,30.10,WSW,238,3.0,8.0,87,0.00,,,0.00,Wunderground v.1.15,2013-10-01 16:16:00,
2013-10-01 11:21:00,67.4,63.1,30.09,SW,236,1.0,5.0,86,0.00,,,0.00,Wunderground v.1.15,2013-10-01 16:21:00,
2013-10-01 11:26:00,67.6,63.3,30.09,SW,236,5.0,7.0,86,0.00,,,0.00,Wunderground v.1.15,2013-10-01 16:26:00,
2013-10-01 11:31:00,67.4,62.7,30.09,WSW,246,6.0,7.0,85,0.00,,,0.00,Wunderground v.1.15,2013-10-01 16:31:00,
2013-10-01 11:36:00,67.2,62.5,30.09,WSW,238,5.0,9.0,85,0.00,,,0.00,Wunderground v.1.15,2013-10-01 16:36:00,
2013-10-01 11:41:00,67.1,62.8,30.09,SW,215,3.0,8.0,86,0.00,,,0.00,Wunderground v.1.15,2013-10-01 16:41:00,
2013-10-01 11:46:00,67.1,62.8,30.09,WSW,241,4.0,10.0,86,0.00,,,0.00,Wunderground v.1.15,2013-10-01 16:46:00,
2013-10-01 11:51:00,67.3,63.0,30.09,WSW,240,6.0,9.0,86,0.00,,,0.00,Wunderground v.1.15,2013-10-01 16:51:00,
2013-10-01 11:56:00,67.2,62.2,30.09,WSW,239,7.0,10.0,84,0.00,,,0.00,Wunderground v.1.15,2013-10-01 16:56:00,
2013-10-01 12:01:00,67.1,62.1,30.08,WSW,250,5.0,9.0,84,0.00,,,0.00,Wunderground v.1.15,2013-10-01 17:01:00,
2013-10-01 12:06:00,67.5,62.8,30.09,WNW,300,3.0,9.0,85,0.00,,,0.00,Wunderground v.1.15,2013-10-01 17:06:00,
2013-10-01 12:11:00,67.8,62.8,30.09,SW,234,6.0,8.0,84,0.00,,,0.00,Wunderground v.1.15,2013-10-01 17:11:00,
2013-10-01 12:16:00,68.0,62.3,30.08,SW,214,3.0,9.0,82,0.00,,,0.00,Wunderground v.1.15,2013-10-01 17:16:00,
2013-10-01 12:21:00,68.3,62.6,30.08,SSW,199,4.0,8.0,82,0.00,,,0.00,Wunderground v.1.15,2013-10-01 17:21:00,
2013-10-01 12:26:00,68.5,62.4,30.08,SSW,196,4.0,9.0,81,0.00,,,0.00,Wunderground v.1.15,2013-10-01 17:26:00,
2013-10-01 12:31:00,68.5,62.8,30.08,WNW,300,5.0,7.0,82,0.00,,,0.00,Wunderground v.1.15,2013-10-01 17:31:00,
2013-10-01 12:36:00,68.6,62.5,30.08,SW,223,5.0,9.0,81,0.00,,,0.00,Wunderground v.1.15,2013-10-01 17:36:00,
2013-10-01 12:41:00,68.6,61.8,30.07,SW,229,6.0,8.0,79,0.00,,,0.00,Wunderground v.1.15,2013-10-01 17:41:00,
2013-10-01 12:46:00,68.8,62.0,30.07,WSW,246,1.0,9.0,79,0.00,,,0.00,Wunderground v.1.15,2013-10-01 17:46:00,
2013-10-01 12:51:00,69.2,62.0,30.07,WSW,238,4.0,9.0,78,0.00,,,0.00,Wunderground v.1.15,2013-10-01 17:51:00,
2013-10-01 12:56:00,69.0,61.9,30.07,WSW,258,6.0,9.0,78,0.00,,,0.00,Wunderground v.1.15,2013-10-01 17:56:00,
2013-10-01 13:01:00,69.2,62.4,30.07,NNW,338,0.0,6.0,79,0.00,,,0.00,Wunderground v.1.15,2013-10-01 18:01:00,
2013-10-01 13:06:00,69.5,61.6,30.07,WSW,241,3.0,9.0,76,0.00,,,0.00,Wunderground v.1.15,2013-10-01 18:06:00,
2013-10-01 13:11:00,69.5,62.3,30.06,SW,224,2.0,5.0,78,0.00,,,0.00,Wunderground v.1.15,2013-10-01 18:11:00,
2013-10-01 13:16:00,69.8,62.3,30.06,SW,234,2.0,10.0,77,0.00,,,0.00,Wunderground v.1.15,2013-10-01 18:16:00,
2013-10-01 13:21:00,69.9,61.6,30.06,SW,230,4.0,9.0,75,0.00,,,0.00,Wunderground v.1.15,2013-10-01 18:21:00,
2013-10-01 13:27:00,70.2,61.5,30.06,SW,223,5.0,9.0,74,0.00,,,0.00,Wunderground v.1.15,2013-10-01 18:27:00,
2013-10-01 13:32:00,70.0,62.5,30.05,West,279,2.0,7.0,77,0.00,,,0.00,Wunderground v.1.15,2013-10-01 18:32:00,
2013-10-01 13:37:00,70.1,62.6,30.05,West,277,3.0,7.0,77,0.00,,,0.00,Wunderground v.1.15,2013-10-01 18:37:00,
2013-10-01 13:42:00,70.1,62.6,30.05,West,278,2.0,6.0,77,0.00,,,0.00,Wunderground v.1.15,2013-10-01 18:42:00,
2013-10-01 13:47:00,70.2,62.3,30.05,West,274,9.0,9.0,76,0.00,,,0.00,Wunderground v.1.15,2013-10-01 18:47:00,
2013-10-01 13:52:00,70.4,62.8,30.05,WNW,293,8.0,10.0,77,0.00,,,0.00,Wunderground v.1.15,2013-10-01 18:52:00,
2013-10-01 13:57:00,70.6,62.3,30.05,WSW,255,3.0,10.0,75,0.00,,,0.00,Wunderground v.1.15,2013-10-01 18:57:00,
2013-10-01 14:02:00,70.6,62.3,30.05,WNW,286,5.0,10.0,75,0.00,,,0.00,Wunderground v.1.15,2013-10-01 19:02:00,
2013-10-01 14:07:00,70.2,62.3,30.05,SSW,202,4.0,10.0,76,0.00,,,0.00,Wunderground v.1.15,2013-10-01 19:07:00,
2013-10-01 14:12:00,70.5,62.6,30.04,WNW,284,5.0,8.0,76,0.00,,,0.00,Wunderground v.1.15,2013-10-01 19:12:00,
2013-10-01 14:17:00,70.5,62.6,30.04,West,274,3.0,8.0,76,0.00,,,0.00,Wunderground v.1.15,2013-10-01 19:17:00,
2013-10-01 14:22:00,70.5,62.6,30.04,WNW,282,5.0,8.0,76,0.00,,,0.00,Wunderground v.1.15,2013-10-01 19:22:00,
2013-10-01 14:27:00,70.5,62.9,30.04,WSW,245,9.0,9.0,77,0.00,,,0.00,Wunderground v.1.15,2013-10-01 19:27:00,
2013-10-01 14:32:00,70.4,63.2,30.04,SW,229,3.0,10.0,78,0.00,,,0.00,Wunderground v.1.15,2013-10-01 19:32:00,
2013-10-01 14:37:00,70.7,63.5,30.04,West,269,1.0,10.0,78,0.00,,,0.00,Wunderground v.1.15,2013-10-01 19:37:00,
2013-10-01 14:42:00,70.8,63.2,30.04,WSW,244,2.0,6.0,77,0.00,,,0.00,Wunderground v.1.15,2013-10-01 19:42:00,
2013-10-01 14:47:00,71.0,63.4,30.04,SW,226,1.0,7.0,77,0.00,,,0.00,Wunderground v.1.15,2013-10-01 19:47:00,
2013-10-01 14:52:00,71.2,63.2,30.03,WSW,238,1.0,7.0,76,0.00,,,0.00,Wunderground v.1.15,2013-10-01 19:52:00,
2013-10-01 14:57:00,71.0,63.1,30.03,WSW,250,3.0,7.0,76,0.00,,,0.00,Wunderground v.1.15,2013-10-01 19:57:00,
2013-10-01 15:02:00,71.1,63.1,30.03,WSW,257,5.0,5.0,76,0.00,,,0.00,Wunderground v.1.15,2013-10-01 20:02:00,
2013-10-01 15:07:00,71.1,62.8,30.03,West,279,4.0,6.0,75,0.00,,,0.00,Wunderground v.1.15,2013-10-01 20:07:00,
2013-10-01 15:12:00,71.2,62.5,30.03,WSW,251,3.0,4.0,74,0.00,,,0.00,Wunderground v.1.15,2013-10-01 20:12:00,
2013-10-01 15:17:00,71.5,62.4,30.03,NNW,327,0.0,4.0,73,0.00,,,0.00,Wunderground v.1.15,2013-10-01 20:17:00,
2013-10-01 15:22:00,72.2,63.1,30.02,NNW,336,0.0,3.0,73,0.00,,,0.00,Wunderground v.1.15,2013-10-01 20:22:00,
2013-10-01 15:27:00,72.6,63.8,30.02,WNW,297,0.0,4.0,74,0.00,,,0.00,Wunderground v.1.15,2013-10-01 20:27:00,
2013-10-01 15:32:00,73.1,63.1,30.02,NNW,327,1.0,4.0,71,0.00,,,0.00,Wunderground v.1.15,2013-10-01 20:32:00,
2013-10-01 15:37:00,73.6,64.4,30.02,WNW,283,2.0,6.0,73,0.00,,,0.00,Wunderground v.1.15,2013-10-01 20:37:00,
2013-10-01 15:42:00,73.5,63.9,30.02,West,268,4.0,6.0,72,0.00,,,0.00,Wunderground v.1.15,2013-10-01 20:42:00,
2013-10-01 15:47:00,73.3,63.3,30.02,SW,231,4.0,6.0,71,0.00,,,0.00,Wunderground v.1.15,2013-10-01 20:47:00,
2013-10-01 15:52:00,73.1,62.7,30.02,SW,233,0.0,4.0,70,0.00,,,0.00,Wunderground v.1.15,2013-10-01 20:52:00,
2013-10-01 15:57:00,73.3,62.5,30.02,NW,314,5.0,6.0,69,0.00,,,0.00,Wunderground v.1.15,2013-10-01 20:57:00,
2013-10-01 16:02:00,73.7,64.1,30.02,NW,314,3.0,5.0,72,0.00,,,0.00,Wunderground v.1.15,2013-10-01 21:02:00,
2013-10-01 16:07:00,74.2,63.4,30.02,NW,310,1.0,5.0,69,0.00,,,0.00,Wunderground v.1.15,2013-10-01 21:07:00,
2013-10-01 16:12:00,74.2,63.4,30.02,WNW,286,3.0,6.0,69,0.00,,,0.00,Wunderground v.1.15,2013-10-01 21:12:00,
2013-10-01 16:17:00,73.9,62.7,30.02,WNW,299,0.0,7.0,68,0.00,,,0.00,Wunderground v.1.15,2013-10-01 21:17:00,
2013-10-01 16:22:00,73.9,62.7,30.02,NW,314,2.0,5.0,68,0.00,,,0.00,Wunderground v.1.15,2013-10-01 21:22:00,
2013-10-01 16:27:00,73.9,62.2,30.02,SW,225,4.0,6.0,67,0.00,,,0.00,Wunderground v.1.15,2013-10-01 21:27:00,
2013-10-01 16:32:00,72.7,61.5,30.02,WSW,240,3.0,7.0,68,0.00,,,0.00,Wunderground v.1.15,2013-10-01 21:32:00,
2013-10-01 16:37:00,72.3,61.6,30.02,SW,232,2.0,7.0,69,0.00,,,0.00,Wunderground v.1.15,2013-10-01 21:37:00,
2013-10-01 16:42:00,71.9,62.0,30.02,SSW,203,1.0,3.0,71,0.00,,,0.00,Wunderground v.1.15,2013-10-01 21:42:00,
2013-10-01 16:47:00,71.8,62.3,30.02,SW,229,0.0,3.0,72,0.00,,,0.00,Wunderground v.1.15,2013-10-01 21:47:00,
2013-10-01 16:52:00,72.0,63.6,30.02,SW,229,0.0,0.0,75,0.00,,,0.00,Wunderground v.1.15,2013-10-01 21:52:00,
2013-10-01 16:57:00,72.3,63.5,30.03,SW,229,0.0,0.0,74,0.00,,,0.00,Wunderground v.1.15,2013-10-01 21:57:00,
2013-10-01 17:02:00,72.5,64.1,30.03,SW,229,0.0,0.0,75,0.00,,,0.00,Wunderground v.1.15,2013-10-01 22:02:00,
2013-10-01 17:07:00,72.5,64.9,30.03,SW,229,0.0,0.0,77,0.00,,,0.00,Wunderground v.1.15,2013-10-01 22:07:00,
2013-10-01 17:12:00,72.1,65.2,30.03,East,101,0.0,1.0,79,0.00,,,0.00,Wunderground v.1.15,2013-10-01 22:12:00,
2013-10-01 17:17:00,71.6,65.1,30.03,ESE,117,0.0,1.0,80,0.00,,,0.00,Wunderground v.1.15,2013-10-01 22:17:00,
2013-10-01 17:22:00,71.7,65.2,30.03,ESE,110,0.0,0.0,80,0.00,,,0.00,Wunderground v.1.15,2013-10-01 22:22:00,
2013-10-01 17:27:00,71.7,65.2,30.03,ESE,122,0.0,0.0,80,0.00,,,0.00,Wunderground v.1.15,2013-10-01 22:27:00,
2013-10-01 17:32:00,71.2,65.1,30.03,ESE,117,0.0,2.0,81,0.00,,,0.00,Wunderground v.1.15,2013-10-01 22:32:00,
2013-10-01 17:38:00,70.6,64.8,30.03,ESE,123,0.0,2.0,82,0.00,,,0.00,Wunderground v.1.15,2013-10-01 22:38:00,
2013-10-01 17:43:00,70.5,65.1,30.03,ESE,123,0.0,2.0,83,0.00,,,0.00,Wunderground v.1.15,2013-10-01 22:43:00,
2013-10-01 17:48:00,70.9,65.1,30.03,ESE,123,1.0,2.0,82,0.00,,,0.00,Wunderground v.1.15,2013-10-01 22:48:00,
2013-10-01 17:53:00,71.4,65.3,30.03,ESE,123,0.0,3.0,81,0.00,,,0.00,Wunderground v.1.15,2013-10-01 22:53:00,
2013-10-01 17:58:00,71.6,64.7,30.03,SE,124,3.0,4.0,79,0.00,,,0.00,Wunderground v.1.15,2013-10-01 22:58:00,
2013-10-01 18:03:00,71.6,64.4,30.02,SE,128,3.0,4.0,78,0.00,,,0.00,Wunderground v.1.15,2013-10-01 23:03:00,
2013-10-01 18:08:00,71.2,64.4,30.02,SE,128,2.0,4.0,79,0.00,,,0.00,Wunderground v.1.15,2013-10-01 23:08:00,
2013-10-01 18:13:00,70.4,64.3,30.03,SE,137,2.0,3.0,81,0.00,,,0.00,Wunderground v.1.15,2013-10-01 23:13:00,
2013-10-01 18:18:00,69.7,63.6,30.03,SE,133,4.0,5.0,81,0.00,,,0.00,Wunderground v.1.15,2013-10-01 23:18:00,
2013-10-01 18:20:00,69.5,63.8,30.03,SE,132,4.0,4.0,82,0.00,,,0.00,Wunderground v.1.15,2013-10-01 23:20:00,
2013-10-01 18:25:00,68.8,63.4,30.03,SE,132,4.0,4.0,83,0.00,,,0.00,Wunderground v.1.15,2013-10-01 23:25:00,
2013-10-01 18:30:00,68.1,63.1,30.03,SE,129,3.0,4.0,84,0.00,,,0.00,Wunderground v.1.15,2013-10-01 23:30:00,
2013-10-01 18:35:00,67.6,62.9,30.04,SE,130,4.0,5.0,85,0.00,,,0.00,Wunderground v.1.15,2013-10-01 23:35:00,
2013-10-01 18:40:00,67.4,63.1,30.04,ESE,121,2.0,4.0,86,0.00,,,0.00,Wunderground v.1.15,2013-10-01 23:40:00,
2013-10-01 18:45:00,67.0,63.0,30.04,SE,134,4.0,5.0,87,0.00,,,0.00,Wunderground v.1.15,2013-10-01 23:45:00,
2013-10-01 18:50:00,66.7,62.7,30.04,SE,129,2.0,3.0,87,0.00,,,0.00,Wunderground v.1.15,2013-10-01 23:50:00,
2013-10-01 18:55:00,66.6,62.9,30.04,SE,134,4.0,5.0,88,0.00,,,0.00,Wunderground v.1.15,2013-10-01 23:55:00,
2013-10-01 19:00:00,66.5,62.8,30.04,SE,142,3.0,3.0,88,0.00,,,0.00,Wunderground v.1.15,2013-10-02 00:00:00,
2013-10-01 19:05:00,66.4,62.7,30.04,SE,128,3.0,5.0,88,0.00,,,0.00,Wunderground v.1.15,2013-10-02 00:05:00,
2013-10-01 19:10:00,66.4,62.7,30.04,SE,132,4.0,4.0,88,0.00,,,0.00,Wunderground v.1.15,2013-10-02 00:10:00,
2013-10-01 19:15:00,66.5,62.8,30.04,ESE,121,3.0,5.0,88,0.00,,,0.00,Wunderground v.1.15,2013-10-02 00:15:00,
2013-10-01 19:17:00,66.5,62.8,30.04,SE,133,3.0,5.0,88,0.00,,,0.00,Wunderground v.1.15,2013-10-02 00:17:00,
2013-10-01 19:22:00,66.4,62.7,30.04,ESE,119,4.0,5.0,88,0.00,,,0.00,Wunderground v.1.15,2013-10-02 00:22:00,
2013-10-01 19:27:00,66.4,62.7,30.04,SE,130,3.0,5.0,88,0.00,,,0.00,Wunderground v.1.15,2013-10-02 00:27:00,
2013-10-01 19:32:00,66.4,62.7,30.05,SE,135,4.0,5.0,88,0.00,,,0.00,Wunderground v.1.15,2013-10-02 00:32:00,
2013-10-01 19:37:00,66.5,62.8,30.05,SE,131,3.0,5.0,88,0.00,,,0.00,Wunderground v.1.15,2013-10-02 00:37:00,
2013-10-01 19:42:00,66.5,62.5,30.05,SE,136,4.0,6.0,87,0.00,,,0.00,Wunderground v.1.15,2013-10-02 00:42:00,
2013-10-01 19:47:00,66.5,62.5,30.05,SE,131,3.0,6.0,87,0.00,,,0.00,Wunderground v.1.15,2013-10-02 00:47:00,
2013-10-01 19:52:00,66.5,62.5,30.05,SE,126,4.0,5.0,87,0.00,,,0.00,Wunderground v.1.15,2013-10-02 00:52:00,
2013-10-01 19:57:00,66.5,62.2,30.05,SE,139,3.0,5.0,86,0.00,,,0.00,Wunderground v.1.15,2013-10-02 00:57:00,
2013-10-01 20:02:00,66.6,62.3,30.05,ESE,123,3.0,5.0,86,0.00,,,0.00,Wunderground v.1.15,2013-10-02 01:02:00,
2013-10-01 20:07:00,66.7,62.4,30.06,SSE,167,2.0,5.0,86,0.00,,,0.00,Wunderground v.1.15,2013-10-02 01:07:00,
2013-10-01 20:12:00,66.6,62.3,30.06,SE,136,1.0,5.0,86,0.00,,,0.00,Wunderground v.1.15,2013-10-02 01:12:00,
2013-10-01 20:17:00,66.6,62.6,30.06,ESE,117,1.0,6.0,87,0.00,,,0.00,Wunderground v.1.15,2013-10-02 01:17:00,
2013-10-01 20:22:00,66.5,62.2,30.06,SE,137,6.0,6.0,86,0.00,,,0.00,Wunderground v.1.15,2013-10-02 01:22:00,
2013-10-01 20:27:00,66.4,62.4,30.06,SSE,167,1.0,7.0,87,0.00,,,0.00,Wunderground v.1.15,2013-10-02 01:27:00,
2013-10-01 20:32:00,66.3,62.3,30.06,SE,124,3.0,5.0,87,0.00,,,0.00,Wunderground v.1.15,2013-10-02 01:32:00,
2013-10-01 20:37:00,66.2,62.2,30.06,SE,131,6.0,7.0,87,0.00,,,0.00,Wunderground v.1.15,2013-10-02 01:37:00,
2013-10-01 20:42:00,66.0,62.0,30.06,SSW,195,3.0,6.0,87,0.00,,,0.00,Wunderground v.1.15,2013-10-02 01:42:00,
2013-10-01 20:47:00,65.9,62.2,30.07,SE,128,2.0,6.0,88,0.00,,,0.00,Wunderground v.1.15,2013-10-02 01:47:00,
2013-10-01 20:52:00,65.8,62.1,30.07,SE,145,2.0,6.0,88,0.00,,,0.00,Wunderground v.1.15,2013-10-02 01:52:00,
2013-10-01 20:57:00,65.7,61.7,30.07,SE,145,3.0,6.0,87,0.00,,,0.00,Wunderground v.1.15,2013-10-02 01:57:00,
2013-10-01 21:02:00,65.7,61.7,30.07,SE,135,3.0,7.0,87,0.00,,,0.00,Wunderground v.1.15,2013-10-02 02:02:00,
2013-10-01 21:07:00,65.6,61.6,30.07,SE,128,4.0,7.0,87,0.00,,,0.00,Wunderground v.1.15,2013-10-02 02:07:00,
2013-10-01 21:12:00,65.6,61.6,30.07,SE,130,5.0,6.0,87,0.00,,,0.00,Wunderground v.1.15,2013-10-02 02:12:00,
2013-10-01 21:17:00,65.7,61.7,30.07,SE,134,5.0,8.0,87,0.00,,,0.00,Wunderground v.1.15,2013-10-02 02:17:00,
2013-10-01 21:22:00,65.7,61.7,30.07,SE,124,4.0,7.0,87,0.00,,,0.00,Wunderground v.1.15,2013-10-02 02:22:00,
2013-10-01 21:27:00,65.7,61.7,30.07,SE,133,5.0,7.0,87,0.00,,,0.00,Wunderground v.1.15,2013-10-02 02:27:00,
2013-10-01 21:32:00,65.7,61.7,30.07,SE,132,6.0,7.0,87,0.00,,,0.00,Wunderground v.1.15,2013-10-02 02:32:00,
2013-10-01 21:37:00,65.7,61.7,30.07,SE,129,4.0,7.0,87,0.00,,,0.00,Wunderground v.1.15,2013-10-02 02:37:00,
2013-10-01 21:42:00,65.7,61.7,30.07,SE,126,5.0,7.0,87,0.00,,,0.00,Wunderground v.1.15,2013-10-02 02:42:00,
2013-10-01 21:47:00,65.7,61.7,30.07,SE,132,5.0,7.0,87,0.00,,,0.00,Wunderground v.1.15,2013-10-02 02:47:00,
2013-10-01 21:52:00,65.6,61.6,30.07,ESE,119,4.0,7.0,87,0.00,,,0.00,Wunderground v.1.15,2013-10-02 02:52:00,
2013-10-01 21:57:00,65.4,61.4,30.07,SE,124,6.0,9.0,87,0.00,,,0.00,Wunderground v.1.15,2013-10-02 02:57:00,
2013-10-01 22:02:00,65.3,61.3,30.07,SE,135,3.0,6.0,87,0.00,,,0.00,Wunderground v.1.15,2013-10-02 03:02:00,
2013-10-01 22:07:00,65.3,61.7,30.07,ESE,121,4.0,7.0,88,0.00,,,0.00,Wunderground v.1.15,2013-10-02 03:07:00,
2013-10-01 22:12:00,65.2,61.6,30.07,SE,131,4.0,6.0,88,0.00,,,0.00,Wunderground v.1.15,2013-10-02 03:12:00,
2013-10-01 22:17:00,65.2,61.9,30.07,SE,131,3.0,6.0,89,0.00,,,0.00,Wunderground v.1.15,2013-10-02 03:17:00,
2013-10-01 22:22:00,65.2,61.9,30.07,SE,126,3.0,5.0,89,0.00,,,0.00,Wunderground v.1.15,2013-10-02 03:22:00,
2013-10-01 22:27:00,65.3,62.0,30.07,SE,142,4.0,5.0,89,0.00,,,0.00,Wunderground v.1.15,2013-10-02 03:27:00,
2013-10-01 22:32:00,65.4,62.1,30.07,SE,137,5.0,6.0,89,0.00,,,0.00,Wunderground v.1.15,2013-10-02 03:32:00,
2013-10-01 22:37:00,65.4,62.1,30.07,SE,128,4.0,6.0,89,0.00,,,0.00,Wunderground v.1.15,2013-10-02 03:37:00,
2013-10-01 22:42:00,65.3,62.0,30.07,SE,131,4.0,7.0,89,0.00,,,0.00,Wunderground v.1.15,2013-10-02 03:42:00,
2013-10-01 22:47:00,65.2,61.9,30.07,SE,134,4.0,7.0,89,0.00,,,0.00,Wunderground v.1.15,2013-10-02 03:47:00,
2013-10-01 22:52:00,65.1,61.8,30.07,SE,136,5.0,5.0,89,0.00,,,0.00,Wunderground v.1.15,2013-10-02 03:52:00,
2013-10-01 22:57:00,65.1,62.1,30.07,ESE,115,3.0,5.0,90,0.00,,,0.00,Wunderground v.1.15,2013-10-02 03:57:00,
2013-10-01 23:01:00,65.2,61.9,30.07,SE,129,4.0,5.0,89,0.00,,,0.00,Wunderground v.1.15,2013-10-02 04:01:00,
2013-10-01 23:07:00,65.2,61.9,30.07,SE,133,3.0,6.0,89,0.00,,,0.00,Wunderground v.1.15,2013-10-02 04:07:00,
2013-10-01 23:12:00,65.2,61.9,30.07,ESE,121,3.0,4.0,89,0.00,,,0.00,Wunderground v.1.15,2013-10-02 04:12:00,
2013-10-01 23:17:00,65.2,61.9,30.07,SE,140,2.0,5.0,89,0.00,,,0.00,Wunderground v.1.15,2013-10-02 04:17:00,
2013-10-01 23:22:00,65.2,61.9,30.07,SE,141,2.0,5.0,89,0.00,,,0.00,Wunderground v.1.15,2013-10-02 04:22:00,
2013-10-01 23:27:00,65.2,61.9,30.07,SE,132,2.0,6.0,89,0.00,,,0.00,Wunderground v.1.15,2013-10-02 04:27:00,
2013-10-01 23:32:00,65.2,61.9,30.07,SSE,166,1.0,4.0,89,0.00,,,0.00,Wunderground v.1.15,2013-10-02 04:32:00,
2013-10-01 23:37:00,65.3,62.0,30.07,SSE,148,3.0,5.0,89,0.00,,,0.00,Wunderground v.1.15,2013-10-02 04:37:00,
2013-10-01 23:42:00,65.3,62.0,30.07,SSE,154,2.0,4.0,89,0.00,,,0.00,Wunderground v.1.15,2013-10-02 04:42:00,
2013-10-01 23:47:00,65.5,62.2,30.07,South,173,3.0,4.0,89,0.00,,,0.00,Wunderground v.1.15,2013-10-02 04:47:00,
2013-10-01 23:52:00,65.8,62.1,30.07,South,190,0.0,4.0,88,0.00,,,0.00,Wunderground v.1.15,2013-10-02 04:52:00,
2013-10-01 23:57:00,65.9,62.2,30.07,South,173,1.0,4.0,88,0.00,,,0.00,Wunderground v.1.15,2013-10-02 04:57:00,